VK2BNC-13 Weather Reports


Display with metric or nautical units.
time (UTC)temp
F
wind
direction
speed
MPH
gust
MPH
rain 1hr
in
rain 24hr
in
rain mn
in
humidity
%
barometer
mb
20260504160219 61 337 0.0 0.0 0.00 0.29 0.00 95
20260504150215 62 288 0.0 1.0 0.00 0.29 0.00 94
20260504140209 63 212 0.0 2.0 0.01 0.29 0.00 92
20260504130202 63 235 1.0 5.0 0.00 0.28 0.28 89
20260504120156 64 190 0.0 2.0 0.00 0.28 0.28 86
20260504110151 66 72 2.0 5.0 0.00 0.28 0.28 82
20260504100150 67 50 2.0 5.0 0.00 0.28 0.28 83
20260504081648 66 60 1.0 2.0 0.00 0.28 0.28 88
20260504080148 66 37 1.0 3.0 0.00 0.28 0.28 88
20260504070142 67 22 2.0 5.0 0.00 0.28 0.28 86
20260504060142 68 45 4.0 8.0 0.00 0.28 0.28 84
20260504050135 68 27 4.0 9.0 0.00 0.28 0.28 83
20260504044636 67 24 4.0 9.0 0.00 0.28 0.28 85
20260504043135 67 33 4.0 11.0 0.00 0.28 0.28 86
20260504041633 66 44 5.0 11.0 0.00 0.28 0.28 86
20260504040129 66 40 5.0 9.0 0.00 0.28 0.28 86
20260504034630 66 33 5.0 9.0 0.00 0.28 0.28 87
20260504033129 65 37 5.0 9.0 0.00 0.28 0.28 88
20260504031629 65 49 4.0 8.0 0.00 0.28 0.28 91
20260504030129 64 17 3.0 7.0 0.02 0.28 0.28 93
20260504024630 63 11 3.0 7.0 0.06 0.28 0.28 94
20260504023128 63 62 3.0 7.0 0.06 0.28 0.28 95
20260504021626 63 48 3.0 5.0 0.08 0.28 0.28 95
20260504020125 62 64 2.0 5.0 0.07 0.26 0.26 96
20260504014625 62 87 3.0 6.0 0.08 0.23 0.23 96
20260504013126 62 78 2.0 4.0 0.13 0.22 0.22 96
20260504011625 62 89 2.0 4.0 0.12 0.20 0.20 95
20260504010126 61 48 2.0 6.0 0.11 0.19 0.19 95
20260504004626 62 38 1.0 6.0 0.09 0.15 0.16 95
20260504003123 62 337 0.0 1.0 0.04 0.09 0.09 95
20260504001624 62 323 0.0 1.0 0.03 0.09 0.09 95
20260504000123 61 315 0.0 1.0 0.04 0.08 0.08 96
20260503234621 61 315 0.0 1.0 0.05 0.06 0.06 96
20260503233123 61 315 0.0 1.0 0.05 0.06 0.06 96
20260503231620 60 128 1.0 3.0 0.05 0.06 0.06 96
20260503230120 60 171 1.0 2.0 0.03 0.04 0.04 95
20260503224619 60 273 1.0 2.0 0.01 0.02 0.02 96
20260503223120 60 321 1.0 3.0 0.00 0.01 0.01 96
20260503221618 60 26 0.0 3.0 0.00 0.01 0.01 96
20260503220117 59 65 1.0 3.0 0.00 0.01 0.01 97
20260503214617 59 52 0.0 2.0 0.00 0.01 0.01 97
20260503213117 59 39 0.0 1.0 0.00 0.01 0.01 97
20260503211617 59 39 0.0 2.0 0.00 0.01 0.01 97
20260503210117 58 52 0.0 2.0 0.01 0.01 0.01 97
20260503204617 58 347 0.0 0.0 0.01 0.01 0.01 97
20260503203118 58 242 0.0 0.0 0.01 0.01 0.01 97
20260503201617 58 242 0.0 2.0 0.01 0.01 0.01 97
20260503200117 58 281 0.0 0.0 0.00 0.00 0.00 96
20260503194617 57 281 0.0 0.0 0.00 0.00 0.00 96
20260503193117 57 281 0.0 0.0 0.00 0.00 0.00 96
20260503191618 57 281 0.0 0.0 0.00 0.00 0.00 96
20260503190117 57 281 0.0 0.0 0.00 0.00 0.00 96
20260503184618 57 281 0.0 0.0 0.00 0.00 0.00 96
20260503183117 57 281 0.0 0.0 0.00 0.00 0.00 96
20260503181607 57 281 0.0 4.0 0.00 0.00 0.00 96
20260503180106 57 281 0.0 4.0 0.00 0.00 0.00 96
20260503174608 57 289 0.0 0.0 0.00 0.00 0.00 96
20260503173106 57 284 0.0 0.0 0.00 0.00 0.00 96
20260503171606 57 284 0.0 0.0 0.00 0.00 0.00 96